[[{"header":{"parameterUnit":"m.s-1","parameterCategory":1,"la1":30.2991,"la2":30.254,"lo1":-89.0895,"lo2":-89.0444,"dy":0.0017,"dx":0.0017,"nx":28,"ny":28,"refTime":"2023-11-04T09:00:00:Z","depth":0,"parameterNumber":2,"parameterNumberName":"U-component_of_WINDS"},"data":[0,0,0,0,0,0,0,0,0,0,0,0,0,0,0,0,0,0,0,0,0,0,0,0,0,0,0,0,0,0,0,0,0,0,0,0,0,0,0,0,0,0,0,0,0,0,0,0,0,0,0,0,0,0,0,0,0,0,0.7909,0.7909,0,0.7977,0.7978,0.7979,0.7996,0.7996,0.7996,0.7995,0.8068,0.8071,0.8073,0,0,0,0,0,0,0,0,0,0,0,0,0,0.7794,0.7796,0.7908,0.7909,0.791,0.7977,0.7978,0.7979,0.7997,0.7996,0.7995,0.7995,0.8067,0.807,0.8073,0,0,0,0,0,0,0,0,0,0,0,0,0,0.7851,0.7796,0.7908,0.7927,0.7929,0.7977,0.7978,0.798,0.7997,0.7996,0.7995,0.7995,0.8067,0.807,0.8073,0.8109,0,0,0.8084,0.8086,0,0,0,0,0,0,0,0,0.7848,0.7855,0.7923,0.7926,0.7928,0.7978,0.7965,0.8023,0.7997,0.7971,0.7995,0.7994,0.8039,0.8045,0.8059,0.8112,0.8115,0.8085,0.8087,0.8088,0.8089,0,0,0,0,0,0,0,0.7844,0.7852,0.7936,0.7924,0.7927,0.7932,0.794,0.7976,0.8008,0.7973,0.7975,0.7983,0.804,0.8056,0.8061,0.8116,0.8084,0.8088,0.809,0.8091,0.8201,0.8202,0,0,0,0,0,0,0.7836,0.7849,0.7934,0.7938,0.7886,0.7935,0.7943,0.7963,0.8008,0.8014,0.7983,0.7983,0.805,0.8057,0.8064,0.8107,0.8088,0.8092,0.8094,0.82,0.8201,0.8202,0,0,0,0,0,0,0.7834,0.7844,0.7931,0.7894,0.7905,0.7938,0.7959,0.7964,0.798,0.8015,0.8021,0.7993,0.805,0.8059,0.8097,0.811,0.8093,0.8096,0.8199,0.82,0.8201,0.8195,0,0,0,0,0,0,0.783,0.7843,0.7856,0.7894,0.7907,0.7963,0.796,0.7966,0.7986,0.7986,0.8026,0.8032,0.805,0.8092,0.81,0.8114,0.8099,0.8198,0.82,0.8201,0.8194,0.8195,0.8197,0,0,0,0,0,0.7826,0.7852,0.7857,0.7867,0.7924,0.7963,0.7971,0.7991,0.7986,0.8,0.8023,0.803,0.8107,0.8095,0.8106,0.8121,0.8197,0.8199,0.8201,0.8193,0.8195,0.8197,0,0,0,0,0,0,0.7815,0.7857,0.7863,0.7901,0.7928,0.7966,0.7984,0.7992,0.8022,0.8021,0.8045,0.8054,0.809,0.811,0.8096,0.8157,0.8152,0.8156,0.8143,0.8145,0.8146,0.8141,0.8102,0,0,0,0,0,0.7817,0.7845,0.788,0.7911,0.7924,0.7952,0.7969,0.7982,0.8011,0.8023,0.8049,0.8077,0.8108,0.8128,0.8158,0.8197,0.8205,0.8212,0.8214,0.8215,0.8218,0.8239,0.8242,0.8208,0.8208,0.8208,0,0,0.7822,0.7848,0.7864,0.7909,0.7932,0.796,0.7961,0.7991,0.8013,0.8028,0.8065,0.8085,0.8119,0.8157,0.8176,0.8174,0.8229,0.8217,0.8217,0.822,0.8241,0.8244,0.8247,0.8209,0.8209,0.8209,0,0,0.7845,0.7867,0.7895,0.7917,0.7951,0.7969,0.7976,0.8012,0.8025,0.8063,0.8075,0.8101,0.8153,0.8176,0.8195,0.8226,0.8234,0.8235,0.8243,0.8263,0.8266,0.8269,0.8279,0.8282,0.8238,0.8238,0.8238,0,0.7846,0.7889,0.7909,0.7938,0.7957,0.7971,0.8,0.8021,0.8063,0.8076,0.8074,0.8139,0.8163,0.8207,0.8214,0.8229,0.8237,0.8231,0.8264,0.8267,0.8269,0.828,0.8283,0.8238,0.8238,0.8238,0.8238,0,0.7889,0.7918,0.7937,0.7976,0.7997,0.8026,0.805,0.807,0.8081,0.8099,0.8137,0.8166,0.8202,0.8213,0.8225,0.8259,0.8257,0.8259,0.8255,0.8272,0.8282,0.8286,0.8238,0.8238,0.8238,0.8238,0,0,0.7907,0.7956,0.7962,0.798,0.8018,0.8041,0.807,0.8105,0.8121,0.8149,0.8174,0.8218,0.822,0.8241,0.8255,0.8273,0.8295,0.8273,0.8274,0.8276,0.8333,0.8331,0.8335,0.83,0.8301,0.8302,0.833,0,0.7934,0.7986,0.8004,0.8047,0.8074,0.8088,0.8114,0.814,0.8158,0.8184,0.8204,0.8234,0.8235,0.8247,0.8266,0.8288,0.8307,0.8286,0.8324,0.8325,0.8314,0.8341,0.8338,0.8364,0.8334,0.8335,0.8336,0,0.7972,0.8,0.8045,0.8079,0.8091,0.8114,0.8146,0.8171,0.8201,0.8213,0.8236,0.8248,0.828,0.8274,0.8317,0.8303,0.832,0.8333,0.8334,0.8338,0.8331,0.8345,0.8373,0.8376,0.8342,0.8342,0.8341,0,0.798,0.8029,0.8062,0.8077,0.8117,0.8133,0.8151,0.818,0.8199,0.8228,0.824,0.8272,0.829,0.8315,0.8336,0.833,0.8377,0.8373,0.8388,0.8387,0.8397,0.8396,0.8427,0.8409,0.8409,0.8408,0.8408,0,0.8007,0.8035,0.8066,0.8086,0.8117,0.8138,0.8168,0.8187,0.8213,0.8237,0.8252,0.8275,0.8301,0.8328,0.8344,0.8377,0.8386,0.8396,0.84,0.8394,0.8393,0.8405,0.8404,0.8409,0.8409,0.8409,0.8409,0,0.8021,0.8043,0.808,0.8115,0.8125,0.8146,0.8176,0.8197,0.8215,0.8246,0.8254,0.8283,0.8315,0.8338,0.838,0.8391,0.8426,0.8431,0.8415,0.8417,0.843,0.8429,0.847,0.8477,0.8454,0.8454,0.8454,0,0.8037,0.8058,0.8095,0.8112,0.813,0.8157,0.8176,0.8198,0.8218,0.8253,0.8269,0.8302,0.8329,0.8379,0.8404,0.8435,0.844,0.8453,0.8445,0.8439,0.844,0.8438,0.844,0.8454,0.8454,0.8454,0.8454,0,0.8063,0.8073,0.81,0.813,0.8152,0.8178,0.8204,0.8217,0.8243,0.8264,0.8296,0.8317,0.8359,0.8391,0.8425,0.8444,0.8453,0.8456,0.8461,0.8455,0.8445,0.845,0.8418,0.8455,0.8455,0.8455,0.8455,0.8455,0.8078,0.8097,0.8126,0.8155,0.8177,0.82,0.8221,0.8241,0.8268,0.8303,0.8314,0.8347,0.8377,0.8423,0.8442,0.8468,0.8468,0.8475,0.8477,0.8478,0.8478,0.8441,0.8475,0.8475,0.8475,0.8475,0.8475,0,0.8104,0.8123,0.815,0.8185,0.8208,0.8214,0.8243,0.8262,0.829,0.8316,0.8342,0.8379,0.841,0.8437,0.8469,0.8485,0.849,0.8492,0.8491,0.8495,0.8476,0.8468,0.8488,0.8488,0.8488,0.8488,0.8488,0.8488,0.8121,0.8153,0.8166,0.8209,0.8228,0.826,0.8275,0.8297,0.8318,0.8358,0.8383,0.84,0.8427,0.8461,0.8489,0.8496,0.8507,0.8509,0.8517,0.8498,0.8497,0.8495,0.8488,0.8511,0.8511,0.8534,0.8534,0.8534]},{"header":{"parameterUnit":"m.s-1","parameterCategory":1,"la1":30.2991,"la2":30.254,"lo1":-89.0895,"lo2":-89.0444,"dy":0.0017,"dx":0.0017,"nx":28,"ny":28,"refTime":"2023-11-04T09:00:00:Z","depth":0,"parameterNumber":3,"parameterNumberName":"V-component_of_WINDS"},"data":[0,0,0,0,0,0,0,0,0,0,0,0,0,0,0,0,0,0,0,0,0,0,0,0,0,0,0,0,0,0,0,0,0,0,0,0,0,0,0,0,0,0,0,0,0,0,0,0,0,0,0,0,0,0,0,0,0,0,1.1379,1.1378,0,1.1353,1.1352,1.1352,1.1276,1.1274,1.1272,1.1271,1.1243,1.1243,1.1244,0,0,0,0,0,0,0,0,0,0,0,0,0,1.1359,1.1359,1.1379,1.1378,1.1378,1.1353,1.1352,1.1352,1.1276,1.1274,1.1272,1.127,1.1242,1.1243,1.1244,0,0,0,0,0,0,0,0,0,0,0,0,0,1.1354,1.136,1.1379,1.1337,1.1333,1.1353,1.1352,1.1352,1.1276,1.1274,1.1271,1.1269,1.1242,1.1243,1.1244,1.1302,0,0,1.1248,1.1248,0,0,0,0,0,0,0,0,1.1354,1.1354,1.1344,1.134,1.1336,1.1315,1.1335,1.1335,1.1277,1.1298,1.1271,1.1268,1.1269,1.1267,1.1268,1.13,1.1299,1.1248,1.1249,1.1249,1.125,0,0,0,0,0,0,0,1.1354,1.1355,1.1368,1.1344,1.1339,1.1318,1.1315,1.1335,1.1298,1.1296,1.129,1.1288,1.1266,1.1267,1.1267,1.1299,1.1248,1.1249,1.125,1.125,1.1371,1.1374,0,0,0,0,0,0,1.1361,1.1356,1.1369,1.1368,1.1339,1.1321,1.1317,1.1324,1.1297,1.1291,1.1291,1.1285,1.1266,1.1265,1.1265,1.1326,1.1249,1.125,1.1251,1.1369,1.1372,1.1375,0,0,0,0,0,0,1.1361,1.1363,1.137,1.136,1.136,1.1324,1.1332,1.1325,1.1326,1.1293,1.1286,1.1299,1.1264,1.1264,1.1292,1.1325,1.1251,1.1252,1.1366,1.137,1.1373,1.1452,0,0,0,0,0,0,1.1361,1.1364,1.1386,1.1361,1.136,1.1399,1.1335,1.1326,1.1328,1.1321,1.1299,1.1293,1.1262,1.1291,1.1293,1.1325,1.1253,1.1363,1.1368,1.1372,1.1446,1.1458,1.1468,0,0,0,0,0,1.136,1.141,1.1388,1.139,1.1388,1.1401,1.14,1.1365,1.1332,1.1352,1.1331,1.1293,1.1322,1.1294,1.1297,1.1329,1.136,1.1366,1.1372,1.1441,1.1456,1.1468,0,0,0,0,0,0,1.144,1.1406,1.1381,1.1424,1.1416,1.1388,1.1414,1.1382,1.1382,1.1375,1.133,1.1326,1.1359,1.1348,1.1318,1.138,1.1334,1.1341,1.1387,1.14,1.1411,1.1411,1.1254,0,0,0,0,0,1.1462,1.1477,1.1446,1.1487,1.1484,1.145,1.1455,1.1428,1.1417,1.1413,1.1394,1.1384,1.139,1.1395,1.1399,1.1445,1.1437,1.1468,1.1479,1.1488,1.1493,1.1512,1.1524,1.1393,1.1393,1.1393,0,0,1.1509,1.1492,1.1504,1.1503,1.1493,1.1507,1.1448,1.1466,1.1475,1.1416,1.144,1.1426,1.1411,1.1448,1.1463,1.1439,1.1528,1.1495,1.1503,1.1503,1.1519,1.1531,1.1542,1.1397,1.1396,1.1396,0,0,1.16,1.1591,1.1622,1.1613,1.1599,1.1575,1.1583,1.1559,1.1547,1.1571,1.1525,1.1535,1.1548,1.1538,1.1535,1.162,1.1584,1.1623,1.1678,1.1697,1.1707,1.1716,1.1742,1.1752,1.1629,1.1629,1.1629,0,1.1659,1.1679,1.1642,1.1661,1.166,1.1608,1.1636,1.163,1.1618,1.1618,1.1592,1.1603,1.1591,1.1621,1.1642,1.1643,1.1647,1.1624,1.1709,1.1718,1.1725,1.1749,1.176,1.1633,1.1633,1.1632,1.1632,0,1.175,1.1765,1.1791,1.178,1.1782,1.1807,1.1771,1.1778,1.1751,1.1729,1.1752,1.1735,1.1732,1.1739,1.1713,1.1765,1.175,1.1718,1.1669,1.1743,1.1764,1.1774,1.164,1.1638,1.1637,1.1636,0,0,1.189,1.1856,1.1866,1.1858,1.1838,1.1847,1.1869,1.1866,1.187,1.1864,1.1878,1.1889,1.1857,1.1854,1.1827,1.1844,1.1906,1.1808,1.1807,1.1823,1.1957,1.1978,1.199,1.1883,1.1885,1.1886,1.1956,0,1.1972,1.2006,1.1972,1.2012,1.2022,1.1971,1.1989,1.1977,1.1958,1.1962,1.194,1.1947,1.1907,1.1904,1.1919,1.1895,1.1931,1.189,1.1892,1.1893,1.1894,1.2002,1.2026,1.2093,1.1965,1.1967,1.1968,0,1.2072,1.2069,1.211,1.2083,1.2086,1.2103,1.2096,1.2102,1.2087,1.2071,1.2066,1.2032,1.2048,1.2004,1.2024,1.1997,1.1996,1.1984,1.1986,1.1981,1.1932,1.1996,1.2114,1.2122,1.1981,1.198,1.1979,0,1.2164,1.217,1.2194,1.219,1.2161,1.2173,1.2161,1.2144,1.2143,1.2137,1.2135,1.2132,1.2129,1.2126,1.2091,1.2063,1.2113,1.2067,1.2097,1.2098,1.2107,1.2107,1.2222,1.2114,1.2114,1.2114,1.2114,0,1.2257,1.2283,1.2234,1.2248,1.2275,1.2235,1.2262,1.2245,1.2229,1.2237,1.2195,1.2203,1.2159,1.2162,1.2135,1.2152,1.2153,1.2138,1.213,1.2139,1.2141,1.2135,1.2128,1.2116,1.2116,1.2115,1.2115,0,1.2363,1.2332,1.2353,1.2324,1.2317,1.2337,1.2311,1.2321,1.2299,1.231,1.231,1.2274,1.2275,1.2241,1.2236,1.2217,1.2245,1.2231,1.225,1.2244,1.2274,1.227,1.2387,1.2398,1.2287,1.2288,1.2289,0,1.2422,1.244,1.2412,1.2414,1.2405,1.241,1.2409,1.237,1.237,1.2352,1.2364,1.2362,1.2358,1.2361,1.2334,1.2328,1.2311,1.2352,1.2309,1.2317,1.2306,1.2304,1.2303,1.236,1.2361,1.2362,1.2363,0,1.2529,1.2512,1.2512,1.2506,1.2506,1.2499,1.249,1.2494,1.2451,1.2453,1.2454,1.245,1.2444,1.2441,1.243,1.2416,1.2381,1.2377,1.2383,1.2391,1.24,1.2391,1.227,1.2374,1.2373,1.2372,1.2372,1.2371,1.261,1.2622,1.2603,1.2604,1.2592,1.2584,1.2591,1.2569,1.2569,1.256,1.2538,1.2541,1.2522,1.2503,1.2492,1.2493,1.2472,1.2482,1.2483,1.2485,1.2489,1.2403,1.2491,1.2491,1.2491,1.249,1.249,0,1.2711,1.2696,1.2697,1.2684,1.2684,1.2653,1.264,1.2641,1.2645,1.263,1.2627,1.2625,1.2621,1.2593,1.2585,1.2591,1.2574,1.259,1.2587,1.2583,1.2511,1.2504,1.2603,1.2603,1.2603,1.2603,1.2603,1.2602,1.2763,1.278,1.2761,1.2772,1.2756,1.2759,1.2753,1.2744,1.2732,1.2732,1.2729,1.2711,1.269,1.2679,1.2673,1.2665,1.2662,1.2682,1.2668,1.26,1.2589,1.2578,1.2572,1.2683,1.2683,1.274,1.274,1.2741]}]]